Leesburg International Airport
KLEE : now visible

Airfield :











YOU CAN JOIN US ON...

 
LOGIN :

Register | Disclaimer

   EN    FR    IT 

 









Legend :    VFR   Marginal VFR   IFR   Intensive IFR   Very Intensive IFR
Visi :
Ceiling :
>= 8 km
>= 3000ft
5 to 8 km
1000 to 3000 ft
1500m to 5 km
500 to 1000 ft
800 to 1500m
200 to 500 ft
< 800m
< 200 ft
Symbols :   Thunderstorms  Fog  Heavy snow  Heavy precipitations  Wind > 20 kt






- Airport Elevation : 76 ft


KLEE - Leesburg International

CURRENT METAR :
  • 072053Z 00000KT 10SM CLR 29/14 A3001 RMK AO2 SLP160 T02940144 56026

EXPIRED METARs :
  • 071953Z VRB04KT 10SM CLR 30/14 A3003 RMK AO2 SLP168 T03000139
  • 071853Z 27004KT 10SM CLR 29/16 A3006 RMK AO2 SLP176 T02890156

TAF KLEE
Valid from the 07 at 18:00 until the 08 at 18:00 UTC


071742Z 0718/0818 VRB05KT P6SM SCT040
FM080800 VRB03KT P6SM SCT010 SCT250
FM081400 27012KT P6SM SCT035 SCT250



MET'MAP, your aeronautical weather chart ! - Copyright ORBIFLY December 2007 - Disclaimer

ORBIFLY MET'MAP TEAM :

Programming & Development : Alexandra Zaïnal
Concept & original design : Baudouin d'Aumeries
Assistance for programming : Marc-Olivier Méhu
Technical & hardware support : Manuel Goepfert

Contact : metmap@orbifly.com




SOURCES & CREDITS :

   NOAA       Earth
Advisory